Tracking 20382 objects as of 24-Feb-2020
HD Live streaming from Space Station
objects crossing your sky now
Track the group of recently launched Starlink satellites

MOLNIYA 2-14

Track MOLNIYA 2-14 now!
MOLNIYA 2-14 is classified as:


NORAD ID: 8195
Int'l Code: 1975-081A
Perigee: 648.9 km
Apogee: 39,469.5 km
Inclination: 63.0 °
Period: 712.7 minutes
Semi major axis: 26430 km
RCS: 17.1549 m2 (large)
Launch date: September 9, 1975
Source: Commonwealth of Independent States (former USSR) (CIS)
Launch site: PLESETSK MISSILE AND SPACE COMPLEX (PKMTR)
aabbcc
Your satellite tracking list
Your tracking list is empty




NASA's NSSDC Master Catalog

Two Line Element Set (TLE):
1  8195U 75081A   20049.51314603 +.00000104 +00000-0 +20895-2 0  9993
2  8195 062.9897 296.4150 7343999 292.2583 008.9060 02.02047361325736
Source of the keplerian elements: AFSPC